CW2969 Weather Reports


time (UTC)temp
F
wind
direction
speed
knots
gust
knots
rain 1hr
in
rain 24hr
in
rain mn
in
humidity
%
barometer
mb
20260504050531 66 259 1.7 2.6 0.00 0.00 0.00 64 1016.7
20260504045531 66 197 1.7 3.5 0.00 0.00 0.00 63 1016.6
20260504045031 66 136 1.7 3.5 0.00 0.00 0.00 63 1016.6
20260504044531 66 221 0.9 4.3 0.00 0.00 0.00 62 1016.6
20260504044031 67 195 1.7 4.3 0.00 0.00 0.00 62 1016.7
20260504043531 67 136 2.6 2.6 0.00 0.00 0.00 62 1016.6
20260504043031 67 215 0.9 2.6 0.00 0.00 0.00 61 1016.6
20260504042531 67 138 0.9 1.7 0.00 0.00 0.00 61 1016.7
20260504042031 67 107 1.7 1.7 0.00 0.00 0.00 61 1016.8
20260504041531 67 140 1.7 3.5 0.00 0.00 0.00 60 1016.8
20260504041031 67 134 1.7 3.5 0.00 0.00 0.00 60 1016.7
20260504040530 67 170 0.0 3.5 0.00 0.00 0.00 59 1016.8
20260504040031 67 146 2.6 3.5 0.00 0.00 0.00 59 1016.8
20260504035530 67 216 2.6 3.5 0.00 0.00 0.00 58 1016.8
20260504035030 67 237 1.7 4.3 0.00 0.00 0.00 58 1016.8
20260504034530 67 153 1.7 4.3 0.00 0.00 0.00 58 1016.7
20260504034030 67 154 0.9 3.5 0.00 0.00 0.00 57 1016.7
20260504033030 66 205 0.9 7.0 0.00 0.00 0.00 57 1016.6
20260504032530 66 132 1.7 7.0 0.00 0.00 0.00 57 1016.6
20260504032030 66 134 2.6 2.6 0.00 0.00 0.00 56 1016.7
20260504031530 66 109 0.0 0.0 0.00 0.00 0.00 56 1016.6
20260504031030 66 109 0.0 0.0 0.00 0.00 0.00 55 1016.6
20260504030530 66 176 0.0 1.7 0.00 0.00 0.00 55 1016.5
20260504030030 67 169 0.9 1.7 0.00 0.00 0.00 54 1016.5
20260504025529 67 169 0.0 0.0 0.00 0.00 0.00 53 1016.3
20260504025030 67 169 0.0 0.0 0.00 0.00 0.00 52 1016.2
20260504024530 67 169 0.0 0.0 0.00 0.00 0.00 52 1016.2
20260504023529 68 169 0.0 0.0 0.00 0.00 0.00 51 1016.2
20260504023029 68 169 0.0 0.0 0.00 0.00 0.00 51 1016.2
20260504022529 68 169 0.0 0.9 0.00 0.00 0.00 51 1016.1
20260504022029 69 169 0.0 0.9 0.00 0.00 0.00 50 1016.2
20260504021529 69 169 0.0 0.9 0.00 0.00 0.00 50 1016.3
20260504021029 69 169 0.0 0.9 0.00 0.00 0.00 50 1016.3
20260504020029 70 198 0.0 0.0 0.00 0.00 0.00 49 1016.3
20260504015529 70 198 0.0 0.0 0.00 0.00 0.00 48 1015.9
20260504015029 71 198 0.0 0.0 0.00 0.00 0.00 47 1015.8
20260504014528 71 198 0.0 0.0 0.00 0.00 0.00 46 1015.6
20260504014028 72 198 0.0 0.0 0.00 0.00 0.00 46 1015.6
20260504013528 72 198 0.0 0.0 0.00 0.00 0.00 46 1015.7
20260504013028 73 198 0.0 0.0 0.00 0.00 0.00 46 1015.6
20260504012528 73 198 0.0 0.0 0.00 0.00 0.00 45 1015.6
20260504011528 74 193 0.9 0.9 0.00 0.00 0.00 44 1015.6
20260504011028 74 150 0.0 0.9 0.00 0.00 0.00 44 1015.6
20260504005528 75 196 0.9 1.7 0.00 0.00 0.00 43 1015.6
20260504005028 76 173 0.0 1.7 0.00 0.00 0.00 42 1015.5
20260504004528 76 148 0.9 2.6 0.00 0.00 0.00 42 1015.5
20260504004028 76 105 0.9 2.6 0.00 0.00 0.00 41 1015.5
20260504002528 77 115 2.6 3.5 0.00 0.00 0.00 40 1015.6
20260504002027 77 141 2.6 6.1 0.00 0.00 0.00 40 1015.8
20260504001527 77 186 1.7 6.1 0.00 0.00 0.00 39 1015.9
20260504001027 78 205 1.7 3.5 0.00 0.00 0.00 39 1015.9
20260504000527 78 250 1.7 8.7 0.00 0.00 0.00 39 1016.0
20260504000027 78 132 7.0 8.7 0.00 0.00 0.00 39 1016.0
20260503235527 78 197 0.9 4.3 0.00 0.00 0.00 39 1016.1
20260503235027 78 185 0.9 4.3 0.00 0.00 0.00 39 1016.1
20260503234527 79 204 1.7 4.3 0.00 0.00 0.00 38 1016.2
20260503234026 79 128 3.5 8.7 0.00 0.00 0.00 39 1016.1
20260503233526 78 101 8.7 8.7 0.00 0.00 0.00 39 1016.1
20260503232526 78 144 1.7 5.2 0.00 0.00 0.00 39 1016.2
20260503232026 79 205 0.9 5.2 0.00 0.00 0.00 39 1016.3
20260503231526 79 150 0.9 6.1 0.00 0.00 0.00 38 1016.3
20260503230526 79 186 2.6 3.5 0.00 0.00 0.00 38 1016.0
20260503230026 79 163 1.7 3.5 0.00 0.00 0.00 38 1016.1
20260503225526 79 137 3.5 3.5 0.00 0.00 0.00 38 1016.2
20260503225026 80 178 1.7 3.5 0.00 0.00 0.00 37 1016.2
20260503224526 80 244 1.7 5.2 0.00 0.00 0.00 37 1016.3
20260503224026 80 121 4.3 5.2 0.00 0.00 0.00 37 1016.4
20260503223526 81 145 2.6 4.3 0.00 0.00 0.00 37 1016.5
20260503223026 81 318 0.9 3.5 0.00 0.00 0.00 38 1016.7
20260503222526 81 227 1.7 2.6 0.00 0.00 0.00 37 1016.7
20260503222026 81 155 1.7 7.0 0.00 0.00 0.00 37 1016.7
20260503221526 80 166 2.6 9.6 0.00 0.00 0.00 37 1016.7
20260503221026 80 140 4.3 9.6 0.00 0.00 0.00 37 1016.9
20260503220526 80 132 4.3 7.0 0.00 0.00 0.00 37 1016.9
20260503215526 80 134 3.5 7.0 0.00 0.00 0.00 36 1017.1
20260503215026 80 112 2.6 4.3 0.00 0.00 0.00 37 1017.1
20260503214525 80 217 0.9 7.8 0.00 0.00 0.00 37 1017.1
20260503214026 81 135 7.0 7.8 0.00 0.00 0.00 37 1017.2
20260503213525 81 304 0.9 4.3 0.00 0.00 0.00 37 1017.3
20260503213025 81 109 3.5 8.7 0.00 0.00 0.00 37 1017.4
20260503212525 81 119 1.7 8.7 0.00 0.00 0.00 37 1017.5
20260503212025 81 192 2.6 7.0 0.00 0.00 0.00 37 1017.6
20260503211525 80 240 0.9 3.5 0.00 0.00 0.00 38 1017.8
20260503211025 80 190 1.7 7.8 0.00 0.00 0.00 37 1017.8
20260503210525 80 109 1.7 9.6 0.00 0.00 0.00 37 1017.9
20260503205526 80 195 1.7 8.7 0.00 0.00 0.00 37 1018.2
20260503205025 80 101 6.1 7.0 0.00 0.00 0.00 38 1018.3
20260503204525 80 134 7.0 7.0 0.00 0.00 0.00 37 1018.2
20260503204025 80 158 1.7 7.8 0.00 0.00 0.00 38 1018.4
20260503203525 80 207 1.7 7.8 0.00 0.00 0.00 38 1018.5
20260503203025 80 331 1.7 9.6 0.00 0.00 0.00 38 1018.7
20260503202525 80 140 2.6 9.6 0.00 0.00 0.00 39 1018.7
20260503202025 81 165 4.3 5.2 0.00 0.00 0.00 39 1018.7
20260503201025 80 248 3.5 7.0 0.00 0.00 0.00 39 1018.7
20260503200525 80 295 1.7 9.6 0.00 0.00 0.00 39 1018.9
20260503200025 80 188 2.6 9.6 0.00 0.00 0.00 39 1019.1
20260503194525 79 207 1.7 7.8 0.00 0.00 0.00 39 1019.2
20260503194024 79 202 0.9 9.6 0.00 0.00 0.00 41 1019.3
20260503193024 79 136 3.5 6.1 0.00 0.00 0.00 41 1019.4
20260503192524 79 115 1.7 5.2 0.00 0.00 0.00 40 1019.4
20260503192025 79 117 1.7 5.2 0.00 0.00 0.00 41 1019.5
20260503191524 79 290 0.0 11.3 0.00 0.00 0.00 42 1019.5
20260503191024 79 165 8.7 11.3 0.00 0.00 0.00 41 1019.6
20260503190524 79 143 0.9 14.8 0.00 0.00 0.00 42 1019.7
20260503185525 79 87 1.7 4.3 0.00 0.00 0.00 42 1019.9
20260503185024 79 254 0.9 6.1 0.00 0.00 0.00 42 1020.0
20260503184024 78 159 1.7 7.0 0.00 0.00 0.00 43 1020.1
20260503183524 79 200 5.2 7.0 0.00 0.00 0.00 44 1020.2
20260503183024 79 196 2.6 7.0 0.00 0.00 0.00 44 1020.3
20260503182524 79 153 3.5 7.0 0.00 0.00 0.00 45 1020.5
20260503181024 78 103 5.2 7.0 0.00 0.00 0.00 45 1020.7
20260503180524 78 319 2.6 9.6 0.00 0.00 0.00 45 1020.8
20260503180024 78 130 3.5 9.6 0.00 0.00 0.00 45 1020.9
20260503175524 78 195 2.6 8.7 0.00 0.00 0.00 46 1021.0
20260503174523 77 327 3.5 5.2 0.00 0.00 0.00 47 1021.0
20260503174023 77 152 3.5 7.0 0.00 0.00 0.00 46 1021.2
20260503173523 78 149 3.5 7.0 0.00 0.00 0.00 47 1021.3
20260503173023 77 98 1.7 7.8 0.00 0.00 0.00 49 1021.3
20260503172523 77 186 2.6 7.8 0.00 0.00 0.00 49 1021.4
20260503172023 77 118 3.5 7.0 0.00 0.00 0.00 50 1021.4
20260503171523 77 217 1.7 7.8 0.00 0.00 0.00 50 1021.5
20260503171023 76 230 1.7 7.8 0.00 0.00 0.00 51 1021.6
20260503170523 76 128 6.1 7.8 0.00 0.00 0.00 50 1021.6
20260503131020 57 101 0.0 0.0 0.00 0.00 0.00 83 1021.4
20260503130520 56 101 0.0 0.0 0.00 0.00 0.00 83 1021.4
20260503110519 50 101 0.0 0.0 0.00 0.00 0.00 83 1020.7
20260503081518 52 101 0.0 0.0 0.00 0.00 0.00 82 1020.3
20260503081017 52 101 0.0 0.0 0.00 0.00 0.00 82 1020.3
20260503080518 52 101 0.0 0.0 0.00 0.00 0.00 82 1020.3
20260503072517 53 101 0.0 0.0 0.00 0.00 0.00 82 1020.6
20260503072018 53 101 0.0 0.0 0.00 0.00 0.00 81 1020.6
20260503071517 53 101 0.0 0.0 0.00 0.00 0.00 81 1020.6
20260503071017 53 101 0.0 0.0 0.00 0.00 0.00 81 1020.6
20260503070517 53 101 0.0 0.0 0.00 0.00 0.00 81 1020.6